Regional Weather Roundup
Issued by NWS

Home | Current Version | Previous Version | Text Only | Print | Product List | Glossary On
Versions: 1 2 3 4 5 6 7 8 9 10 11 12 13 14 15 16 17 18 19 20 21 22 23 24 25 26 27 28 29 30 31 32 33 34 35 36 37 38 39 40 41 42 43 44 45 46 47 48 49 50
000
ASUS43 KLSX 151207
RWRMO

WEATHER SUMMARY FOR MISSOURI
NATIONAL WEATHER SERVICE SPRINGFIELD MO
700 AM CDT MON SEP 15 2014

NOTE: "FAIR" INDICATES FEW OR NO CLOUDS BELOW 12,000 FEET WITH NO
       SIGNIFICANT WEATHER AND/OR OBSTRUCTIONS TO VISIBILITY.
       CURRENT SKY AND/OR WEATHER CONDITIONS ARE NOT AVAILABLE FOR
       CHILLICOTHE AND FARMINGTON.

MOZ001>031-035>038-043-044-053-054-151300-
...NORTHERN AND WESTERN MISSOURI...

CITY           SKY/WX    TMP DP  RH WIND       PRES   REMARKS
KANSAS CTY INT PTCLDY    63  60  90 S10       30.03S
6HR MIN TEMP:  62; 6HR MAX TEMP:  65;

KANSAS C DTWN  MOCLDY    65  60  84 S6        30.04S
6HR MIN TEMP:  64; 6HR MAX TEMP:  66;

LEE`S SUMMIT   PTCLDY    61  58  90 S7        30.06S
6HR MIN TEMP:  59; 6HR MAX TEMP:  62;

ST JOSEPH      MOCLDY    61  59  93 SE3       30.03S
6HR MIN TEMP:  61; 6HR MAX TEMP:  65; 6HR PCP: TRACE;

CHILLICOTHE      N/A     61  58  90 CALM      30.07R
6HR MIN TEMP:  61; 6HR MAX TEMP:  65;

KIRKSVILLE     CLOUDY    59  54  83 SE3       30.08R
6HR MIN TEMP:  58; 6HR MAX TEMP:  60; 6HR PCP: TRACE;


$$
MOZ066>068-077>081-088>096-101>105-151300-
...SOUTHWEST MISSOURI...

CITY           SKY/WX    TMP DP  RH WIND       PRES   REMARKS
SPRINGFIELD    CLOUDY    63  60  90 S12       30.14R
6HR MIN TEMP:  63; 6HR MAX TEMP:  65;

JOPLIN         MOCLDY    66  62  87 S15       30.12S
6HR MIN TEMP:  66; 6HR MAX TEMP:  68;


$$
MOZ032>034-039>042-045>050-055>058-069>072-151300-
...CENTRAL MISSOURI...

CITY           SKY/WX    TMP DP  RH WIND       PRES   REMARKS
COLUMBIA       CLOUDY    60  54  80 S9        30.11F
6HR MIN TEMP:  57; 6HR MAX TEMP:  60; 6HR PCP: TRACE;

JEFFERSON CITY CLOUDY    60  54  80 E6        30.11F
6HR MIN TEMP:  56; 6HR MAX TEMP:  60;

ROLLA          CLOUDY    58  54  86 S12       30.14S
6HR MIN TEMP:  57; 6HR MAX TEMP:  60; 6HR PCP:  0.03;

SEDALIA        CLOUDY    61  56  83 S9        30.09F
6HR MIN TEMP:  56; 6HR MAX TEMP:  61;

WHITEMAN AFB   PTCLDY    61  58  90 S8        30.06F
OSAGE BEACH    CLOUDY    61  54  77 S6        30.12F

$$
MOZ051-052-059>065-151300-
...EAST CENTRAL MISSOURI...

CITY           SKY/WX    TMP DP  RH WIND       PRES   REMARKS
ST LOUIS INTL  CLOUDY    64  50  60 S9        30.16F
6HR MIN TEMP:  58; 6HR MAX TEMP:  64;

SPIRIT OF STL  CLOUDY    60  52  74 S3        30.15F
6HR MIN TEMP:  52; 6HR MAX TEMP:  60;

ST CHARLES     CLOUDY    58  55  90 E6        30.15F
6HR MIN TEMP:  52; 6HR MAX TEMP:  58;


$$
MOZ072>076-082>087-097>100-106>115-151300-
...SOUTH CENTRAL AND SOUTHEAST MISSOURI...

CITY           SKY/WX    TMP DP  RH WIND       PRES   REMARKS
CAPE GIRARDEAU MOCLDY    54  52  93 W3        30.20R
6HR MIN TEMP:  52; 6HR MAX TEMP:  57;

FARMINGTON     CLOUDY    57  52  82 S8        30.19F
6HR MIN TEMP:  54; 6HR MAX TEMP:  57;

POPLAR BLUFF   CLOUDY    58  54  86 CALM      30.19R
6HR MIN TEMP:  57; 6HR MAX TEMP:  58;

WEST PLAINS    LGT RAIN  59  55  87 SW6       30.21R FOG
6HR MIN TEMP:  59; 6HR MAX TEMP:  62; 6HR PCP:  0.12;


$$


USA.gov is the U.S. government's official web portal to all federal, state and local government web resources and services.